Location: B?lite?ti
(46.2833°N, 22.7333°E)
Time: 16:55:24
(UTC+00:00)

DMSP B5D1-3 - Pass Details

Date: 24 January 2021
Orbit: 767 x 780 km, 98.5° (Epoch: 01 March)

Event Time Altitude Azimuth Distance (km) Brightness Sun altitude
Exits shadow 17:21:45 10° 17° (NNE) 2,300 6.7 -20.5°
Maximum altitude 17:26:49 77° 103° (ESE) 793 4.4 -21.4°
Drops below altitude 10° 17:31:54 10° 190° (S) 2,306 7.1 -22.3°
Sets 17:34:13 0° 192° (SSW) 3,230 7.9 -22.7°
